Retour au catalogue

STARLINK-4589

ActifCommunicationsVLEO
NORAD 53746·PAYLOAD·🇺🇸 United States

Lancé Sep 5, 2022 depuis Cape Canaveral Space Force Station

Loading…

Prochains Passages (prochaines 24 heures)

TLE

FraisSource: CelesTrak SupGP

Époque: Sep 14, 2026, 20:54 UTC

1 53746C 22107AY  26257.87131944 -.00043946  00000+0 -12986-2 0  2578
2 53746  53.1592 120.3862 0001291  83.7481 173.3585 15.34406037    14

Suivez STARLINK-4589 en temps réel avec AllMySat

Download on the App Store